Location: Shandelee
(41.8790°N, 74.8713°W)
Time: 04:02:33
(UTC+00:00)

Lacrosse 5 - Pass Details

Date: 29 October 2020
Orbit: 716 x 723 km, 57.0° (Epoch: 06 November)

Event Time Altitude Azimuth Distance (km) Brightness Sun altitude
Rises 23:09:18 0° 309° (NW) 3,123 5.9 -14.0°
Reaches altitude 10° 23:12:44 10° 333° (NNW) 2,203 4.7 -14.6°
Maximum altitude 23:15:37 15° 8° (N) 1,881 3.9 -15.2°
Enters shadow 23:17:47 12° 36° (NE) 2,069 3.9 -15.6°
